Location: Sternwarte Zollern-Alb
(48.2880°N, 8.6780°E)
Time: 03:34:43
(UTC+02:00)

ISS - Pass Details

Date: 27 April 2026
Orbit: 414 x 424 km, 51.6° (Epoch: 19 May)

Event Time Altitude Azimuth Distance (km) Brightness Sun altitude
Exits shadow 03:13:50 24° 92° (E) 907 -1.8 -23.2°
Drops below altitude 10° 03:15:29 10° 76° (ENE) 1,500 -0.4 -23.1°
Sets 03:17:40 0° 69° (ENE) 2,369 0.8 -22.9°
